Location: Cuiry
(49.3858°N, 3.7708°E)
Time: 00:34:24
(UTC+00:00)

Cosmos 1339 Rocket - Pass Details

Date: 12 January 2026
Orbit: 940 x 1006 km, 82.9° (Epoch: 9 February)

Event Time Altitude Azimuth Distance (km) Brightness Sun altitude
Rises 19:16:19 0° 191° (S) 3,663 7.6 -29.5°
Reaches altitude 10° 19:18:50 10° 193° (SSW) 2,710 6.9 -30.0°
Maximum altitude 19:25:03 79° 280° (W) 984 4.4 -31.0°
Enters shadow 19:25:11 78° 296° (WNW) 985 4.4 -31.0°
